Weather History for KMVE - March, 2013

Change the Weather History Date:

Tuesday, March 5, 2013

  Actual Average Record
Temperature  
Mean Temperature 22 °F -  
Max Temperature 26 °F 35 °F 59 °F (1987)
Min Temperature 17 °F 15 °F -19 °F (1960)
Degree Days  
Heating Degree Days 44    
Moisture  
Dew Point 22 °F    
Average Humidity 95    
Maximum Humidity 100    
Minimum Humidity 86    
Precipitation  
Precipitation 0.02 in - - ()
Sea Level Pressure  
Sea Level Pressure 30.14 in    
Wind  
Wind Speed 11 mph (North)    
Max Wind Speed 23 mph    
Max Gust Speed 30 mph    
Visibility 6 miles    
Events Snow    
Averages and records for this station are not official NWS values.
T = Trace of Precipitation, MM = Missing Value Source: NWS Daily Summary

Daily Weather History Graph

Daily Weather History Graph

Search for Another Location

Airport or City:

Trip Planner

Search our weather history database for the weather conditions in past years. The results will help you decide how hot, cold, wet, or windy it might be!

Date:

Astronomy

Mar. 05, 2013 Rise Set
Actual Time 6:53 AM CST 6:16 PM CST
Civil Twilight 6:23 AM CST 6:45 PM CST
Nautical Twilight 5:49 AM CST 7:19 PM CST
Astronomical Twilight 5:15 AM CST 7:53 PM CST
Moon 2:17 AM CST (3/5) 11:44 AM CST (3/5)
Length of Visible Light 12h 21m
Length of Day
11h 23m
Last Quarter, 40% of the Moon is Illuminated
Mar 5
Last Quarter
Mar 11
New
Mar 19
First Quarter
Mar 27
Full
Apr 2
Last Quarter

Hourly Weather History & Observations

Time (CST) Temp. Windchill Dew Point Humidity Pressure Visibility Wind Dir Wind Speed Gust Speed Precip Events Conditions
12:14 AM 26.6 °F 19.1 °F 26.6 °F 100% 29.92 in 2.5 mi South 6.9 mph - N/A   Overcast
12:34 AM 24.8 °F 15.3 °F 24.8 °F 100% 29.92 in 2.5 mi South 9.2 mph - N/A   Overcast
12:54 AM 24.8 °F 15.3 °F 24.8 °F 100% 29.92 in 2.5 mi South 9.2 mph - N/A   Overcast
1:14 AM 24.8 °F 15.3 °F 24.8 °F 100% 29.93 in 2.5 mi SSE 9.2 mph - N/A   Overcast
1:34 AM 24.8 °F 16.1 °F 24.8 °F 100% 29.92 in 2.5 mi SSE 8.1 mph - N/A   Overcast
1:54 AM 24.8 °F 17.9 °F 24.8 °F 100% 29.93 in 2.5 mi South 5.8 mph - N/A   Overcast
2:14 AM 24.8 °F 16.9 °F 24.8 °F 100% 29.93 in 2.5 mi SSE 6.9 mph - N/A   Overcast
2:34 AM 24.8 °F - 24.8 °F 100% 29.93 in 1.8 mi Calm Calm - N/A Snow Light Snow
2:54 AM 24.8 °F - 24.8 °F 100% 29.93 in 1.5 mi Calm Calm - N/A Snow Light Snow
3:14 AM 26.6 °F - 26.6 °F 100% 29.93 in 1.5 mi Calm Calm - N/A Snow Light Snow
3:34 AM 26.6 °F - 26.6 °F 100% 29.93 in 1.5 mi Calm Calm - 0.01 in   Overcast
3:54 AM 24.8 °F 20.5 °F 24.8 °F 100% 29.93 in 1.2 mi NW 3.5 mph - 0.01 in Snow Snow
4:14 AM 26.6 °F 21.2 °F 26.6 °F 100% 29.93 in 2.0 mi NW 4.6 mph - N/A Snow Light Snow
4:34 AM 26.6 °F 21.2 °F 26.6 °F 100% 29.94 in 1.5 mi NNW 4.6 mph - N/A Snow Light Snow
4:54 AM 26.6 °F 20.0 °F 26.6 °F 100% 29.95 in 1.5 mi North 5.8 mph - N/A Snow Light Snow
5:14 AM 26.6 °F 19.1 °F 26.6 °F 100% 29.95 in 1.5 mi North 6.9 mph - N/A Snow Light Snow
5:34 AM 26.6 °F 19.1 °F 26.6 °F 100% 29.96 in 2.0 mi North 6.9 mph - N/A Snow Light Snow
5:54 AM 24.8 °F 15.3 °F 24.8 °F 100% 29.97 in 1.5 mi NE 9.2 mph - 0.01 in Snow Light Snow
6:14 AM 24.8 °F 16.1 °F 24.8 °F 100% 29.98 in 1.8 mi NE 8.1 mph - N/A Snow Light Snow
7:14 AM 23.0 °F 11.7 °F 23.0 °F 100% 30.01 in 1.8 mi NNE 11.5 mph - N/A Snow Light Snow
7:34 AM 23.0 °F 12.4 °F 21.2 °F 93% 30.02 in 1.8 mi NNE 10.4 mph - N/A Snow Light Snow
7:54 AM 23.0 °F 13.1 °F 21.2 °F 93% 30.03 in 3.0 mi NNE 9.2 mph - N/A Snow Light Snow
8:14 AM 23.0 °F 12.4 °F 21.2 °F 93% 30.05 in 4.0 mi NNE 10.4 mph - N/A   Mostly Cloudy
8:34 AM 23.0 °F 10.6 °F 21.2 °F 93% 30.06 in 4.0 mi NNE 13.8 mph - N/A   Mostly Cloudy
8:54 AM 23.0 °F 10.6 °F 21.2 °F 93% 30.07 in 2.5 mi North 13.8 mph - N/A Snow Light Snow
9:14 AM 23.0 °F 11.7 °F 23.0 °F 100% 30.08 in 1.8 mi North 11.5 mph - N/A Snow Light Snow
9:34 AM 24.8 °F 12.9 °F 23.0 °F 93% 30.09 in 1.5 mi North 13.8 mph - N/A Snow Light Snow
9:54 AM 24.8 °F 13.4 °F 23.0 °F 93% 30.09 in 1.8 mi NNE 12.7 mph - N/A Snow Light Snow
10:14 AM 24.8 °F 12.9 °F 23.0 °F 93% 30.10 in 2.0 mi NNE 13.8 mph - N/A   Overcast
10:34 AM 24.8 °F 12.4 °F 23.0 °F 93% 30.11 in 2.0 mi NNE 15.0 mph 19.6 mph N/A   Overcast
10:54 AM 24.8 °F 11.9 °F 24.8 °F 100% 30.12 in 1.8 mi North 16.1 mph - N/A   Overcast
11:14 AM 24.8 °F 12.4 °F 24.8 °F 100% 30.13 in 1.8 mi NNE 15.0 mph 21.9 mph N/A   Overcast
11:34 AM 26.6 °F 14.7 °F 24.8 °F 93% 30.14 in 2.0 mi NNE 15.0 mph 21.9 mph N/A   Overcast
11:54 AM 26.6 °F 13.4 °F 24.8 °F 93% 30.14 in 2.5 mi NNE 18.4 mph 23.0 mph N/A   Overcast
12:14 PM 26.6 °F 13.4 °F 24.8 °F 93% 30.14 in 7.0 mi NNE 18.4 mph 24.2 mph N/A   Overcast
12:34 PM 26.6 °F 13.4 °F 24.8 °F 93% 30.15 in 7.0 mi North 18.4 mph 26.5 mph N/A   Overcast
12:54 PM 26.6 °F 13.8 °F 24.8 °F 93% 30.15 in 10.0 mi North 17.3 mph 21.9 mph N/A   Overcast
1:14 PM 26.6 °F 12.7 °F 24.8 °F 93% 30.17 in 7.0 mi North 20.7 mph 28.8 mph N/A   Overcast
1:34 PM 26.6 °F 12.7 °F 23.0 °F 86% 30.17 in 7.0 mi North 20.7 mph 25.3 mph N/A   Overcast
1:54 PM 26.6 °F 12.4 °F 24.8 °F 93% 30.18 in 5.0 mi North 21.9 mph 27.6 mph N/A   Overcast
2:14 PM 24.8 °F 9.6 °F 23.0 °F 93% 30.18 in 4.0 mi North 23.0 mph 29.9 mph N/A Snow Light Snow
2:34 PM 24.8 °F 10.3 °F 23.0 °F 93% 30.19 in 4.0 mi North 20.7 mph 28.8 mph N/A Snow Light Snow
2:54 PM 24.8 °F 10.7 °F 23.0 °F 93% 30.20 in 4.0 mi North 19.6 mph 29.9 mph N/A Snow Light Snow
3:14 PM 24.8 °F 10.7 °F 23.0 °F 93% 30.20 in 5.0 mi North 19.6 mph 25.3 mph N/A   Overcast
3:34 PM 24.8 °F 10.0 °F 23.0 °F 93% 30.21 in 4.0 mi North 21.9 mph 26.5 mph N/A Snow Light Snow
3:54 PM 24.8 °F 12.4 °F 21.2 °F 86% 30.22 in 10.0 mi North 15.0 mph 25.3 mph N/A   Overcast
4:14 PM 24.8 °F 11.1 °F 21.2 °F 86% 30.22 in 10.0 mi North 18.4 mph 24.2 mph N/A   Overcast
4:34 PM 23.0 °F 8.7 °F 21.2 °F 93% 30.24 in 10.0 mi North 18.4 mph 26.5 mph N/A   Overcast
4:54 PM 23.0 °F 8.3 °F 21.2 °F 93% 30.25 in 10.0 mi North 19.6 mph 27.6 mph N/A   Overcast
5:14 PM 23.0 °F 8.0 °F 21.2 °F 93% 30.26 in 10.0 mi North 20.7 mph 26.5 mph N/A   Overcast
5:34 PM 23.0 °F 8.0 °F 19.4 °F 86% 30.27 in 10.0 mi North 20.7 mph 24.2 mph N/A   Overcast
5:54 PM 21.2 °F 6.4 °F 19.4 °F 93% 30.28 in 10.0 mi North 18.4 mph 23.0 mph N/A   Overcast
6:14 PM 21.2 °F 6.4 °F 19.4 °F 93% 30.28 in 10.0 mi North 18.4 mph 24.2 mph N/A   Overcast
6:34 PM 21.2 °F 6.8 °F 19.4 °F 93% 30.29 in 10.0 mi North 17.3 mph 21.9 mph N/A   Overcast
6:54 PM 19.4 °F 6.0 °F 17.6 °F 93% 30.30 in 10.0 mi North 13.8 mph - N/A   Mostly Cloudy
7:13 PM 19.4 °F 5.0 °F 17.6 °F 93% 30.30 in 10.0 mi North 16.1 mph - N/A   Scattered Clouds
7:34 PM 17.6 °F 3.7 °F 17.6 °F 100% 30.31 in 10.0 mi North 13.8 mph 18.4 mph N/A   Clear
7:54 PM 17.6 °F 3.7 °F 17.6 °F 100% 30.32 in 10.0 mi North 13.8 mph - N/A   Clear
8:13 PM 17.6 °F 5.0 °F 17.6 °F 100% 30.32 in 10.0 mi North 11.5 mph - N/A   Clear
8:34 PM 19.4 °F 5.5 °F 17.6 °F 93% 30.32 in 10.0 mi North 15.0 mph 19.6 mph N/A   Clear
8:54 PM 17.6 °F 4.3 °F 17.6 °F 100% 30.32 in 10.0 mi North 12.7 mph - N/A   Clear
9:13 PM 17.6 °F 5.0 °F 15.8 °F 93% 30.32 in 10.0 mi North 11.5 mph - N/A   Clear
9:34 PM 17.6 °F 7.3 °F 15.8 °F 93% 30.34 in 10.0 mi NNW 8.1 mph - N/A   Clear
9:54 PM 17.6 °F 7.3 °F 15.8 °F 93% 30.35 in 10.0 mi NNW 8.1 mph - N/A   Clear
10:13 PM 17.6 °F 6.4 °F 15.8 °F 93% 30.35 in 10.0 mi North 9.2 mph - N/A   Scattered Clouds
10:34 PM 17.6 °F 5.0 °F 17.6 °F 100% 30.35 in 10.0 mi North 11.5 mph - N/A   Mostly Cloudy
10:54 PM 19.4 °F 7.9 °F 17.6 °F 93% 30.35 in 10.0 mi North 10.4 mph - N/A   Overcast
11:14 PM 19.4 °F 6.6 °F 17.6 °F 93% 30.36 in 10.0 mi North 12.7 mph - N/A   Overcast
11:34 PM 19.4 °F 7.9 °F 17.6 °F 93% 30.36 in 10.0 mi North 10.4 mph - N/A   Overcast
11:54 PM 19.4 °F 7.2 °F 17.6 °F 93% 30.36 in 10.0 mi North 11.5 mph - N/A   Overcast